CZ-6A DEB, 54289

Orbit data source: Space-Track

CZ-6A DEB, 54289 is space debris in SSO originally from a launch on Fri, 11 Nov 2022 UTC launched from the Taiyaun Space Center, China (TSC). Debris objects in space refer to the collection of defunct objects orbiting the Earth. Examples of debris include non-operational satellites, rocket bodies, and fragments generated from explosions, collisions, or faulty payload assembly.

Loading next visibility...
Identifier
54289, 2022-151AG
Orbit
SSO
Country
Flag of CNCN / PRC
Related business
Manufacturer
SAST
Mission
Spacecraft
Bus & Motor
Unknown
Mass
Unknown
Launch date (UTC)
2022-11-11 (4 years ago)
Launch vehicle
Unknown
Launch site
Taiyaun Space Center, China (TSC)
Object type
Payload
Rocket body
Debris
Shape & HBR
Unknown shape, 0.2 m
Radar Cross Section
Small (<0.1 m²)

Expand to show TLE details & history
Last TLE update: 1 day ago

TLE from 1 day ago
0 CZ-6A DEB
1 54289U 22151AG  26143.96655981  .00000106  00000-0  86286-4 0  9995
2 54289  98.8485 140.1638 0055444  63.2945 297.3886 14.08229042180796
Epoch: 2026-05-23T23:11Z
TLE epoch observation values (Epoch: 2026-05-23T23:11:50.767Z)
Latitude
0.00002°
Longitude
-89.3732°
Altitude
850.03 km
Speed
7.437 km/s
True Right ascension
09h 20m 39s
True Declination
0° 00' 00"
Sunlit
Object was in daylight at epoch
Visualization orbit readout
Latitude
Unknown
Longitude
Unknown
Altitude
Unknown
Speed
Unknown
Apparent Right ascension
Unknown
Apparent Declination
Unknown
Sunlit
N/A
Visualization observer readout
Local Sidereal Time
10:16:03
Azimuth
Unknown
Elevation
Unknown
Doppler factor
Unknown
Orbital elements
Apogee altitude
902.765 km
Perigee altitude
822.474 km
Semi-major axis
7,240.756 km
Eccentricity
0.00554
Inclination
98.8485°
RAAN
140.1638°
Arg. of periapsis
63.2945°
True anomaly
296.82268°
Mean anomaly
297.3886°
Eccentric anomaly
297.10582°
Mean motion
3.52263 °/min
Orbital period
102.2 mins
BSTAR
0.000086286
Loading maneuver chart data...
Computing Atmospheric mass density...
Loading historical data...
Loading historical data...
Loading historical data...
Loading historical data...
Loading historical data...
Loading historical data...
Loading historical data...

Documentation

Showing up to 5 results
|